Stanton, MN

4:08 PM CDT on June 25, 2017 (GMT -0500)
Stanton

Weather History for KSYN - September, 2012

Change the Weather History Date:

Tuesday, September 11, 2012

  Actual Average (KLVN) Record (KLVN)
Temperature  
Mean Temperature 78 °F -  
Max Temperature 94 °F 75 °F 93 °F (1948)
Min Temperature 63 °F 51 °F 36 °F (1955)
Cooling Degree Days 14    
Growing Degree Days 28 (Base 50)    
Moisture  
Dew Point 48 °F    
Average Humidity 39    
Maximum Humidity 63    
Minimum Humidity 17    
Precipitation  
Precipitation 0.00 in - - ()
Sea Level Pressure  
Sea Level Pressure 29.80 in    
Wind  
Wind Speed 12 mph (South)    
Max Wind Speed 22 mph    
Max Gust Speed 33 mph    
Visibility 10 miles    
Events      
Averages and records for this station are not official NWS values.
T = Trace of Precipitation, MM = Missing Value Source: NWS Daily Summary

Daily Weather History Graph

Daily Weather History Graph

Search for Another Location

Airport or City:

Trip Planner

Search our weather history database for the weather conditions in past years. The results will help you decide how hot, cold, wet, or windy it might be!

Date:

Astronomy

Sep. 11, 2012 Rise Set
Actual Time 6:46 AM CDT 7:29 PM CDT
Civil Twilight 6:17 AM CDT 7:58 PM CDT
Nautical Twilight 5:42 AM CDT 8:33 PM CDT
Astronomical Twilight 5:06 AM CDT 9:09 PM CDT
Moon 1:55 AM CDT (9/11) 4:47 PM CDT (9/11)
Length of Visible Light 13h 40m
Length of Day
12h 42m
Waning Crescent, 21% of the Moon is Illuminated
Sep 11
Waning Crescent
Sep 15
New
Sep 22
First Quarter
Sep 29
Full
Oct 8
Last Quarter

Hourly Weather History & Observations

Time (CDT) Temp. Dew Point Humidity Pressure Visibility Wind Dir Wind Speed Gust Speed Precip Events Conditions
12:12 AM 67.6 °F 48.7 °F 51% 29.86 in 10.0 mi South 9.2 mph - N/A   Clear
12:32 AM 67.3 °F 49.1 °F 52% 29.86 in 10.0 mi South 9.2 mph - N/A   Clear
12:52 AM 67.3 °F 49.3 °F 52% 29.86 in 10.0 mi South 9.2 mph - N/A   Clear
1:12 AM 67.1 °F 49.5 °F 53% 29.85 in 10.0 mi South 9.2 mph 16.1 mph N/A   Clear
1:32 AM 67.3 °F 49.6 °F 53% 29.85 in 10.0 mi South 11.5 mph 16.1 mph N/A   Clear
1:52 AM 67.1 °F 50.0 °F 54% 29.85 in 10.0 mi South 10.4 mph - N/A   Clear
2:12 AM 66.4 °F 50.0 °F 56% 29.84 in 10.0 mi South 9.2 mph 17.3 mph N/A   Clear
2:32 AM 65.7 °F 50.4 °F 58% 29.84 in 10.0 mi South 9.2 mph 17.3 mph N/A   Clear
2:52 AM 65.3 °F 50.5 °F 59% 29.84 in 10.0 mi South 8.1 mph - N/A   Clear
3:12 AM 64.8 °F 50.5 °F 60% 29.83 in 10.0 mi South 11.5 mph 16.1 mph N/A   Clear
3:32 AM 65.3 °F 50.5 °F 59% 29.83 in 10.0 mi South 10.4 mph 18.4 mph N/A   Clear
3:52 AM 65.3 °F 50.7 °F 59% 29.83 in 10.0 mi South 12.7 mph 23.0 mph N/A   Clear
4:12 AM 64.9 °F 50.9 °F 60% 29.83 in 10.0 mi South 10.4 mph 18.4 mph N/A   Clear
4:32 AM 64.9 °F 50.9 °F 60% 29.82 in 10.0 mi South 10.4 mph 17.3 mph N/A   Clear
4:52 AM 64.9 °F 50.9 °F 60% 29.82 in 10.0 mi South 11.5 mph 19.6 mph N/A   Clear
5:12 AM 64.8 °F 50.9 °F 61% 29.82 in 10.0 mi South 13.8 mph 19.6 mph N/A   Clear
5:32 AM 64.4 °F 51.1 °F 62% 29.82 in 10.0 mi South 12.7 mph 19.6 mph N/A   Clear
5:52 AM 64.0 °F 50.9 °F 62% 29.82 in 10.0 mi South 10.4 mph 16.1 mph N/A   Clear
6:12 AM 64.0 °F 50.9 °F 62% 29.81 in 10.0 mi South 11.5 mph 19.6 mph N/A   Clear
6:32 AM 64.0 °F 50.9 °F 62% 29.81 in 10.0 mi South 12.7 mph 16.1 mph N/A   Clear
6:52 AM 63.9 °F 50.9 °F 63% 29.81 in 10.0 mi South 10.4 mph 17.3 mph N/A   Clear
7:12 AM 63.9 °F 50.9 °F 63% 29.82 in 10.0 mi South 8.1 mph 18.4 mph N/A   Clear
7:32 AM 64.4 °F 50.9 °F 62% 29.82 in 10.0 mi South 11.5 mph 16.1 mph N/A   Clear
7:52 AM 64.6 °F 50.9 °F 61% 29.81 in 10.0 mi South 10.4 mph 18.4 mph N/A   Clear
8:12 AM 66.2 °F 50.9 °F 58% 29.81 in 10.0 mi South 13.8 mph 20.7 mph N/A   Clear
8:32 AM 67.5 °F 50.9 °F 55% 29.80 in 10.0 mi South 15.0 mph 23.0 mph N/A   Clear
8:52 AM 68.7 °F 50.9 °F 53% 29.81 in 10.0 mi South 12.7 mph 21.9 mph N/A   Clear
9:12 AM 70.5 °F 50.7 °F 49% 29.81 in 10.0 mi SSW 15.0 mph 21.9 mph N/A   Clear
9:32 AM 72.3 °F 50.5 °F 46% 29.81 in 10.0 mi SSW 13.8 mph 25.3 mph N/A   Clear
9:52 AM 74.1 °F 50.0 °F 43% 29.81 in 10.0 mi SSW 16.1 mph 23.0 mph N/A   Clear
10:12 AM 76.5 °F 49.5 °F 39% 29.81 in 10.0 mi South 12.7 mph 21.9 mph N/A   Clear
10:32 AM 78.4 °F 48.7 °F 35% 29.81 in 10.0 mi SSW 16.1 mph 21.9 mph N/A   Clear
10:52 AM 79.9 °F 48.4 °F 33% 29.81 in 10.0 mi SSW 15.0 mph 21.9 mph N/A   Clear
11:12 AM 81.7 °F 47.8 °F 31% 29.81 in 10.0 mi South 16.1 mph 24.2 mph N/A   Clear
11:32 AM 84.0 °F 47.3 °F 28% 29.80 in 10.0 mi SSW 16.1 mph 21.9 mph N/A   Clear
11:52 AM 86.0 °F 46.2 °F 25% 29.81 in 10.0 mi SSW 15.0 mph 25.3 mph N/A   Clear
12:12 PM 86.9 °F 45.7 °F 24% 29.80 in 10.0 mi SSW 17.3 mph 23.0 mph N/A   Clear
12:32 PM 88.3 °F 46.0 °F 23% 29.80 in 10.0 mi South 13.8 mph 18.4 mph N/A   Clear
12:52 PM 89.6 °F 46.2 °F 22% 29.79 in 10.0 mi South 12.7 mph 25.3 mph N/A   Clear
1:12 PM 90.7 °F 45.0 °F 20% 29.78 in 10.0 mi SSW 18.4 mph 26.5 mph N/A   Clear
1:32 PM 91.0 °F 45.7 °F 21% 29.78 in 10.0 mi SSW 19.6 mph 28.8 mph N/A   Clear
1:52 PM 92.3 °F 45.5 °F 20% 29.77 in 10.0 mi South 12.7 mph 25.3 mph N/A   Clear
2:12 PM 93.2 °F 44.6 °F 19% 29.76 in 10.0 mi South 18.4 mph 26.5 mph N/A   Clear
2:32 PM 93.7 °F 44.1 °F 18% 29.75 in 10.0 mi South 20.7 mph 28.8 mph N/A   Clear
2:52 PM 93.6 °F 43.7 °F 18% 29.75 in 10.0 mi South 21.9 mph 27.6 mph N/A   Clear
3:12 PM 93.9 °F 44.1 °F 18% 29.75 in 10.0 mi SSW 17.3 mph 29.9 mph N/A   Clear
3:32 PM 93.7 °F 44.2 °F 18% 29.74 in 10.0 mi South 18.4 mph 27.6 mph N/A   Clear
3:52 PM 94.3 °F 42.6 °F 17% 29.74 in 10.0 mi SSW 18.4 mph 33.4 mph N/A   Clear
4:12 PM 94.1 °F 44.2 °F 18% 29.74 in 10.0 mi South 15.0 mph 26.5 mph N/A   Clear
4:32 PM 93.7 °F 43.9 °F 18% 29.73 in 10.0 mi South 12.7 mph 31.1 mph N/A   Clear
4:52 PM 93.6 °F 45.1 °F 19% 29.74 in 10.0 mi South 17.3 mph 27.6 mph N/A   Clear
5:12 PM 93.2 °F 44.1 °F 18% 29.74 in 10.0 mi SSW 15.0 mph 31.1 mph N/A   Clear
5:32 PM 92.7 °F 43.7 °F 18% 29.74 in 10.0 mi SSW 12.7 mph 25.3 mph N/A   Clear
5:52 PM 91.4 °F 44.4 °F 20% 29.75 in 10.0 mi South 16.1 mph 23.0 mph N/A   Clear
6:12 PM 90.7 °F 44.6 °F 20% 29.75 in 10.0 mi South 11.5 mph 23.0 mph N/A   Clear
6:32 PM 89.2 °F 44.8 °F 21% 29.75 in 10.0 mi South 10.4 mph 18.4 mph N/A   Clear
6:53 PM 87.8 °F 44.4 °F 22% 29.75 in 10.0 mi South 10.4 mph 20.7 mph N/A   Clear
7:12 PM 86.2 °F 45.0 °F 24% 29.76 in 10.0 mi South 10.4 mph 17.3 mph N/A   Clear
7:32 PM 83.7 °F 46.4 °F 27% 29.77 in 10.0 mi South 10.4 mph - N/A   Clear
7:53 PM 82.4 °F 46.2 °F 28% 29.78 in 10.0 mi South 8.1 mph 16.1 mph N/A   Clear
8:12 PM 80.8 °F 46.2 °F 30% 29.78 in 10.0 mi South 8.1 mph - N/A   Clear
8:32 PM 79.9 °F 46.6 °F 31% 29.80 in 10.0 mi SSW 5.8 mph - N/A   Clear
8:53 PM 79.0 °F 47.1 °F 32% 29.80 in 10.0 mi South 6.9 mph - N/A   Clear
9:12 PM 79.0 °F 46.9 °F 32% 29.81 in 10.0 mi South 9.2 mph 16.1 mph N/A   Clear
9:32 PM 79.0 °F 47.1 °F 32% 29.81 in 10.0 mi South 8.1 mph 16.1 mph N/A   Clear
9:51 PM 77.9 °F 47.3 °F 34% 29.81 in 10.0 mi South 9.2 mph - N/A   Clear
10:12 PM 77.9 °F 46.8 °F 33% 29.82 in 10.0 mi South 10.4 mph 16.1 mph N/A   Clear
10:32 PM 77.9 °F 46.9 °F 33% 29.82 in 10.0 mi South 10.4 mph 16.1 mph N/A   Clear
10:52 PM 77.4 °F 47.3 °F 35% 29.83 in 10.0 mi SSW 10.4 mph 17.3 mph N/A   Clear
11:32 PM 77.2 °F 47.5 °F 35% 29.83 in 10.0 mi South 12.7 mph 20.7 mph N/A   Clear
11:52 PM 77.0 °F 47.7 °F 35% 29.84 in 10.0 mi SSW 10.4 mph 17.3 mph N/A   Clear